TimeEDT,TemperatureF,Dew PointF,Humidity,Sea Level PressureIn,VisibilityMPH,Wind Direction,Wind SpeedMPH,Gust SpeedMPH,PrecipitationIn,Events,Conditions,WindDirDegrees,DateUTC
12:53 AM,64.0,61.0,90,30.16,7.0,Calm,Calm,-,N/A,,Clear,0,2013-07-31 04:53:00
1:53 AM,63.0,60.1,90,30.17,6.0,Calm,Calm,-,N/A,,Clear,0,2013-07-31 05:53:00
3:53 AM,64.0,61.0,90,30.15,10.0,Calm,Calm,-,N/A,,Overcast,0,2013-07-31 07:53:00
4:53 AM,62.1,60.1,93,30.15,7.0,Calm,Calm,-,N/A,,Mostly Cloudy,0,2013-07-31 08:53:00
5:53 AM,62.1,59.0,90,30.15,7.0,Calm,Calm,-,N/A,,Overcast,0,2013-07-31 09:53:00
6:53 AM,62.1,60.1,93,30.16,6.0,Calm,Calm,-,N/A,,Partly Cloudy,0,2013-07-31 10:53:00
7:53 AM,64.9,60.1,84,30.16,10.0,Calm,Calm,-,N/A,,Partly Cloudy,0,2013-07-31 11:53:00
8:53 AM,68.0,60.1,76,30.16,10.0,Calm,Calm,-,N/A,,Clear,0,2013-07-31 12:53:00
9:53 AM,68.0,60.1,76,30.16,9.0,Calm,Calm,-,N/A,,Clear,0,2013-07-31 13:53:00
10:53 AM,70.0,61.0,73,30.15,10.0,Calm,Calm,-,N/A,,Clear,0,2013-07-31 14:53:00
11:53 AM,71.1,61.0,70,30.14,10.0,Calm,Calm,-,N/A,,Clear,0,2013-07-31 15:53:00
12:53 PM,71.1,62.1,73,30.12,10.0,Calm,Calm,-,N/A,,Clear,0,2013-07-31 16:53:00
1:53 PM,73.0,63.0,71,30.11,10.0,Calm,Calm,-,N/A,,Clear,0,2013-07-31 17:53:00
2:53 PM,75.0,64.0,69,30.10,10.0,SE,3.5,-,N/A,,Clear,140,2013-07-31 18:53:00
3:53 PM,78.1,66.0,66,30.07,10.0,ESE,4.6,-,N/A,,Clear,120,2013-07-31 19:53:00
4:53 PM,77.0,64.0,64,30.05,10.0,South,4.6,-,N/A,,Clear,180,2013-07-31 20:53:00
5:53 PM,78.1,64.9,64,30.04,10.0,SSE,5.8,-,N/A,,Mostly Cloudy,160,2013-07-31 21:53:00
6:53 PM,75.9,64.9,69,30.03,10.0,SE,5.8,-,N/A,,Partly Cloudy,130,2013-07-31 22:53:00
7:53 PM,70.0,64.0,81,30.03,10.0,SW,6.9,19.6,0.00,Rain,Light Rain,220,2013-07-31 23:53:00
8:53 PM,68.0,64.9,90,30.03,10.0,SSE,5.8,-,0.00,,Overcast,160,2013-08-01 00:53:00
9:53 PM,68.0,64.9,90,30.03,10.0,Calm,Calm,-,N/A,,Overcast,0,2013-08-01 01:53:00
10:53 PM,68.0,64.9,90,30.03,10.0,Calm,Calm,-,N/A,,Overcast,0,2013-08-01 02:53:00
11:53 PM,68.0,64.9,90,30.01,10.0,Calm,Calm,-,N/A,,Overcast,0,2013-08-01 03:53:00